Theta_e
322 322 322 322 322 322 322 322 322 322 322 321 322 322 322 322 322 322 322 322 322 323 323 324 324 325 326 327 327 326 323 317 314 312 311 314 328 352 348 359 364 366 360 344 339 336 332 336 333 335 333 333 331 331 336 338 335 330 317 310 305 306 309 314 315 315 320 321 323 327 329 328 324 331 333 338 332 332 332 332 337 339 339 343 343 344 347 347
321 322 322 322 322 322 322 322 322 322 321 321 321 321 321 321 321 321 322 322 322 322 323 323 324 325 326 327 327 326 322 319 310 313 314 329 354 359 361 364 365 364 353 338 333 331 331 331 332 332 330 326 334 328 337 331 336 323 312 309 307 308 314 319 320 320 322 322 324 327 330 328 327 330 334 326 325 327 327 329 332 332 337 341 342 343 344 345
321 321 322 322 322 322 322 322 321 321 321 321 321 321 321 321 321 321 321 322 322 322 323 323 325 325 327 327 326 325 319 311 313 311 317 354 358 361 365 364 363 360 338 334 333 331 329 331 333 332 329 325 329 326 333 321 333 323 313 310 307 313 319 320 323 322 326 325 325 326 330 329 331 332 335 326 323 325 324 324 327 329 331 335 339 342 342 342
321 321 322 322 322 322 321 321 321 321 320 320 320 321 320 320 321 321 321 321 322 322 323 324 325 326 327 327 325 321 316 315 310 313 321 357 359 364 365 364 362 353 332 337 335 332 330 333 333 331 327 325 323 329 325 326 326 320 316 311 313 318 319 323 325 326 327 328 326 327 329 328 329 331 330 326 321 321 324 329 328 328 331 336 339 340 343 341
321 321 321 322 322 321 321 321 320 320 320 320 320 320 320 320 320 321 321 321 322 322 323 324 325 326 327 326 324 319 312 306 311 315 322 359 363 364 366 364 362 331 328 329 329 324 331 331 331 328 325 320 317 323 320 323 328 319 317 317 317 319 320 323 327 329 329 330 328 327 326 326 331 329 327 322 317 316 323 331 337 333 335 337 337 341 346 345
321 321 321 321 321 321 321 320 320 320 320 320 320 320 320 320 320 321 321 321 321 322 323 324 326 326 326 323 320 319 309 302 315 316 361 363 363 366 369 364 361 331 326 324 322 323 326 328 327 321 316 315 312 317 316 321 323 314 316 318 319 319 321 324 329 328 330 327 326 326 327 327 324 324 326 326 324 329 339 341 339 339 339 340 342 343 345 342
320 321 321 321 321 321 321 320 320 320 319 320 319 319 320 320 320 320 320 321 321 322 324 325 326 326 324 321 313 310 310 310 314 319 364 367 369 372 372 366 360 333 327 322 321 322 320 324 322 317 313 311 307 317 314 317 320 317 315 317 320 322 323 325 328 327 328 328 326 328 327 322 320 318 325 328 334 338 342 344 343 344 344 343 340 344 344 341
320 320 320 321 321 320 320 320 320 319 319 319 319 320 320 320 320 320 320 320 321 323 324 325 326 326 323 319 305 302 302 307 314 332 365 366 366 369 368 352 339 328 323 318 320 320 319 320 319 312 307 307 310 313 318 318 319 317 316 319 321 322 324 328 326 327 327 326 327 325 323 322 324 321 324 326 335 339 340 342 342 342 341 340 341 343 344 341
320 320 320 320 320 320 320 319 319 320 319 319 319 319 320 319 320 320 320 321 322 323 324 325 325 325 323 317 304 299 299 307 320 341 351 347 357 352 344 337 330 322 317 316 322 321 316 313 312 311 309 309 312 316 316 317 313 318 317 322 321 322 326 326 325 326 327 328 327 324 322 324 327 326 321 329 336 339 340 340 339 338 337 338 341 342 344 343
320 320 320 320 320 319 319 319 320 320 319 319 319 320 318 319 319 320 320 321 322 323 324 325 325 324 319 309 298 296 304 311 335 341 339 343 340 335 327 328 325 321 322 323 322 322 316 314 315 315 314 311 314 316 316 318 313 321 321 321 321 322 325 327 325 325 327 326 325 322 321 323 326 322 314 331 337 338 337 336 336 335 337 338 340 341 344 346
319 320 320 319 319 319 319 319 320 319 319 319 319 319 318 318 319 319 321 321 322 323 325 325 326 322 317 310 300 296 309 328 327 328 332 334 324 320 320 328 325 323 322 321 321 323 319 316 314 316 314 312 313 311 317 315 323 323 323 322 322 323 324 324 325 324 326 324 324 325 321 323 323 320 316 330 336 336 333 332 333 334 333 336 339 340 340 340
319 319 319 319 318 318 319 319 319 319 319 319 319 318 318 319 319 320 321 321 322 324 325 325 326 318 317 306 300 300 309 326 322 319 324 325 320 318 317 320 327 321 321 319 319 321 319 317 317 316 311 314 307 312 314 324 323 322 323 316 317 320 321 323 322 325 324 322 327 325 317 317 318 316 323 333 335 334 331 331 332 332 332 335 336 338 339 339
319 319 319 319 318 318 318 319 319 319 319 319 318 318 319 319 320 320 321 322 323 324 325 326 325 317 308 300 303 310 311 312 315 320 322 324 323 323 324 323 324 323 323 321 320 322 317 317 316 315 314 311 309 307 315 324 322 322 319 317 315 314 314 322 323 323 323 323 327 320 299 306 315 320 327 334 333 331 329 329 332 329 332 332 335 335 337 339
319 319 319 319 319 318 318 319 319 319 318 318 319 319 319 319 320 320 322 322 324 324 325 326 323 314 308 304 309 311 311 314 325 328 325 323 321 319 321 323 325 324 324 324 324 324 323 319 316 318 316 312 312 324 322 318 318 313 317 313 309 309 307 318 322 321 321 325 325 318 301 306 311 320 328 332 332 329 327 330 332 328 329 330 332 334 336 339
319 319 319 319 319 318 318 318 318 318 318 318 318 319 319 319 320 321 322 323 324 324 325 325 316 313 308 310 316 318 344 349 322 321 320 321 320 317 317 321 321 322 324 324 324 322 320 316 317 313 313 313 321 317 312 310 308 314 310 306 309 308 305 315 323 321 318 323 325 314 303 307 315 320 328 331 332 329 327 331 331 328 328 331 331 334 336 338
319 318 319 319 318 318 318 318 318 318 318 318 318 318 318 319 320 321 322 322 324 324 321 317 316 312 303 299 310 330 316 314 314 317 320 321 319 317 318 320 319 318 317 320 323 324 319 317 312 311 311 312 312 309 308 308 306 306 307 303 307 305 307 313 318 321 322 322 322 315 305 313 317 321 327 331 332 329 326 328 329 329 330 332 333 335 338 336
318 318 319 319 319 318 317 317 318 318 318 318 317 317 318 319 321 323 325 325 323 322 319 315 315 321 298 303 313 310 310 312 314 316 315 319 320 319 321 317 316 315 316 317 317 318 315 313 312 309 305 304 306 311 305 299 296 304 301 303 305 308 307 307 312 319 320 322 317 319 312 313 316 321 329 331 332 327 325 328 329 329 330 332 333 336 335 333
318 319 319 318 318 317 317 317 318 318 317 317 317 317 316 320 322 323 320 322 321 318 316 320 312 300 299 305 303 308 312 308 311 314 313 314 320 322 321 317 314 314 312 312 314 314 313 311 305 303 301 303 305 300 298 296 301 301 304 302 303 307 309 309 310 314 319 320 316 314 313 315 317 323 327 329 331 327 324 328 329 330 331 332 333 334 333 332
318 318 318 318 318 317 318 317 317 317 317 317 316 317 318 320 316 311 306 314 301 300 295 303 297 294 296 303 304 307 310 311 313 314 313 318 318 319 318 318 315 314 310 309 310 311 307 303 304 300 301 300 302 301 299 301 302 303 307 306 305 306 306 307 311 316 320 315 312 313 310 314 318 321 324 327 329 327 324 326 326 328 330 330 332 333 331 331
317 317 318 317 317 317 317 317 316 317 317 313 310 311 307 301 300 304 306 307 302 300 301 303 304 304 304 304 306 310 312 314 312 311 313 313 318 314 314 315 313 310 309 306 306 308 308 299 301 300 300 303 303 302 303 304 302 303 307 306 306 308 308 310 311 316 319 312 310 312 314 314 316 317 323 325 325 324 322 324 324 325 326 328 330 331 331 332
317 317 317 317 317 317 317 316 316 317 316 313 308 302 299 300 298 297 299 301 304 304 302 303 307 306 306 307 309 309 308 309 309 308 312 322 316 314 308 312 306 308 303 305 308 308 308 302 299 301 304 304 305 303 302 302 300 300 301 305 304 307 305 309 311 316 319 312 310 313 314 314 315 317 320 322 324 323 322 321 322 322 324 328 331 330 331 333
317 317 317 317 316 317 316 316 316 316 315 310 308 301 304 307 307 307 301 297 301 304 305 305 307 305 308 309 312 312 309 304 307 308 308 314 313 308 306 308 305 305 303 306 304 298 297 301 301 303 305 305 305 303 302 300 299 300 299 301 302 304 306 310 314 316 317 314 308 313 313 312 316 319 322 320 321 322 323 322 323 324 325 327 329 330 333 337
315 316 316 317 317 316 316 316 315 314 310 305 304 308 306 307 310 311 305 300 297 303 304 303 304 304 306 309 311 312 307 304 302 304 309 313 310 308 307 308 306 305 306 305 303 300 301 297 302 304 305 303 302 302 300 297 298 301 301 300 300 305 305 301 309 314 315 311 310 312 312 312 314 317 320 322 324 324 325 325 326 327 326 328 330 332 334 337
314 314 316 316 316 316 315 315 314 310 305 306 307 305 310 313 312 309 302 297 298 303 305 305 306 305 305 309 310 310 305 304 303 304 308 312 307 308 309 306 304 305 303 303 302 301 301 303 305 306 303 303 303 301 299 294 294 298 302 297 299 304 304 306 308 312 315 316 316 313 309 308 309 313 316 319 323 323 323 326 327 329 331 333 336 338 339 339
313 314 315 316 315 315 315 313 306 309 308 308 308 311 311 315 318 312 303 298 296 299 308 307 309 308 309 313 311 308 304 304 303 306 310 313 308 308 306 308 307 302 302 301 300 301 301 304 306 304 301 300 300 300 301 299 295 292 295 301 303 307 307 311 312 311 304 306 312 311 297 300 305 310 314 316 318 320 322 324 325 328 333 335 335 335 337 337
313 314 315 315 315 314 313 309 309 310 311 312 314 316 318 319 319 312 299 291 290 293 302 301 311 306 314 307 310 306 304 301 303 307 309 313 323 311 309 306 306 303 301 302 303 300 303 305 305 305 301 299 299 300 301 300 295 295 299 298 303 309 311 311 309 307 299 301 311 310 299 294 301 310 314 316 316 318 321 323 326 328 330 332 332 334 333 333
312 313 314 314 314 313 311 311 312 310 310 314 314 316 318 319 320 309 301 285 286 295 298 302 305 305 312 308 306 303 295 295 304 307 310 322 314 313 307 302 304 306 304 304 302 299 306 305 303 301 300 298 297 298 300 297 294 296 298 306 310 311 311 310 310 307 301 311 309 308 304 300 299 305 313 317 316 316 318 321 324 327 329 331 332 333 332 332
311 312 313 313 314 312 311 308 309 310 312 314 315 317 318 318 315 306 293 282 285 299 300 300 305 310 310 306 305 301 300 303 300 305 308 309 313 308 308 301 304 303 306 304 296 300 304 304 303 302 301 297 300 301 303 301 301 300 300 309 310 311 311 311 307 303 305 307 301 303 307 301 298 302 314 316 313 314 315 319 323 326 328 330 331 332 333 334
311 310 311 312 312 311 312 310 307 306 310 314 316 316 317 316 307 299 287 283 296 297 308 303 311 308 304 305 303 303 302 303 301 303 305 309 310 308 304 301 302 301 303 304 300 299 304 305 304 304 302 299 300 300 300 301 299 300 299 304 307 306 305 305 303 306 301 298 298 302 305 296 295 300 310 313 311 311 314 317 323 325 327 328 329 332 334 334
311 309 309 311 310 309 308 310 306 311 314 316 315 314 316 307 301 293 286 283 299 296 302 302 302 299 301 299 299 301 301 300 302 303 305 303 305 308 308 305 304 303 303 299 302 301 303 312 311 306 301 301 300 300 301 300 303 299 300 302 301 299 298 299 298 297 296 292 294 299 305 301 294 298 309 309 309 312 315 317 322 326 328 329 331 333 334 334
310 310 308 308 306 309 309 305 309 313 315 315 314 311 304 301 293 282 282 288 299 299 302 300 299 301 298 298 295 298 300 299 302 303 302 305 304 304 304 304 302 296 294 293 298 298 299 302 305 304 310 304 304 304 303 301 301 301 297 296 298 297 296 296 291 296 293 290 294 300 304 303 296 298 306 312 318 321 317 318 323 326 327 327 330 332 334 334
310 309 309 306 308 310 309 307 310 314 313 313 312 304 299 294 291 286 284 300 294 295 296 295 299 297 297 298 299 296 297 300 300 300 298 299 299 298 299 293 296 292 291 291 296 296 299 302 301 302 317 306 303 301 301 299 297 299 297 295 292 287 288 291 290 294 291 291 302 303 304 303 300 299 308 317 320 321 322 321 324 326 326 325 329 332 333 334
311 310 309 308 307 306 308 311 313 311 313 315 306 299 294 286 284 285 292 295 295 299 297 300 298 298 296 297 295 297 299 297 296 300 299 300 298 298 299 300 298 298 292 293 294 295 296 298 300 301 304 309 304 299 295 299 294 297 298 290 289 287 283 283 286 289 291 297 301 306 306 299 300 305 314 318 320 323 324 324 325 328 326 326 330 331 332 332
311 310 305 307 306 307 310 311 311 311 312 314 299 298 291 286 287 310 295 294 299 300 301 301 302 295 296 294 292 297 296 297 297 298 300 298 298 296 298 300 300 301 299 293 294 291 292 293 297 301 299 303 303 302 301 299 295 297 295 295 293 285 285 282 285 287 290 293 298 304 300 296 298 303 319 321 323 325 326 326 326 326 327 329 331 331 331 330
309 306 307 307 307 308 308 308 309 310 308 303 300 292 288 285 288 291 293 294 296 301 303 305 300 295 295 296 295 298 297 296 299 299 299 296 295 293 295 297 300 297 296 294 295 294 294 293 297 302 306 302 303 304 301 297 299 297 294 295 294 294 290 286 285 290 293 297 298 299 299 304 303 314 321 323 324 324 326 326 327 326 327 328 329 329 329 330
306 307 307 306 307 311 309 309 309 310 304 300 295 293 289 290 292 296 302 306 303 301 303 302 294 293 291 290 293 298 300 298 297 298 297 297 295 296 298 299 301 300 298 295 293 293 293 293 297 299 301 301 304 304 304 301 294 296 297 295 294 296 306 297 301 299 300 295 293 299 301 304 309 312 319 320 321 321 324 324 325 325 326 327 327 329 330 331
303 307 308 309 308 313 310 311 312 308 302 296 289 288 290 297 298 301 312 303 302 303 298 296 295 294 292 291 291 293 297 299 296 296 293 296 297 297 299 300 301 301 302 300 295 294 293 293 298 299 301 302 302 304 303 304 301 295 293 294 300 305 307 300 293 290 291 289 291 301 299 299 300 299 313 316 317 319 321 322 323 324 326 326 327 328 329 330
306 307 315 320 317 313 312 312 311 303 299 295 291 308 300 299 305 306 307 303 303 303 300 297 295 296 292 292 292 293 297 295 292 296 291 295 295 298 298 300 302 305 304 302 301 297 297 293 296 298 300 301 301 301 301 303 302 300 295 302 298 296 296 297 297 290 289 290 290 296 300 301 301 299 310 313 315 316 318 320 322 323 325 326 327 328 329 330
305 308 307 311 315 314 313 314 309 301 293 291 289 294 301 302 305 304 306 305 304 304 299 298 299 297 293 293 292 294 294 292 292 292 293 295 295 299 302 302 302 303 304 303 300 298 298 292 293 297 299 301 300 296 295 297 300 300 301 300 299 295 291 295 293 293 295 291 291 293 296 296 304 306 312 315 316 317 318 318 321 323 324 326 327 328 328 329
307 302 302 313 315 315 315 314 303 296 292 290 288 294 298 299 301 304 304 305 300 302 297 300 299 295 294 294 292 293 295 294 292 293 295 295 297 299 301 304 301 302 302 305 302 302 298 296 289 294 297 298 297 298 296 294 295 296 297 296 298 299 297 299 298 297 294 292 290 290 290 296 301 309 316 317 317 318 319 319 320 323 325 326 327 327 326 327
309 300 305 315 316 316 313 303 297 296 293 295 298 298 299 298 300 302 304 305 303 306 302 300 299 298 296 295 295 294 296 293 294 293 294 296 297 296 300 303 301 299 301 302 301 300 296 297 292 292 295 291 295 295 299 297 298 297 297 295 301 300 298 295 293 299 300 294 290 290 289 294 301 321 319 318 318 320 320 320 321 323 325 327 326 325 325 326
304 300 304 315 316 312 300 294 296 299 297 296 293 299 301 313 304 302 302 303 304 301 305 303 301 300 299 297 295 295 295 293 293 294 295 295 297 299 299 303 301 302 303 299 300 299 300 294 296 293 294 297 299 301 302 301 298 296 298 299 300 300 299 293 289 294 300 301 301 295 293 294 308 318 320 320 320 320 321 322 322 324 325 325 324 325 325 327
300 302 311 315 316 310 295 291 300 303 298 298 301 300 302 303 302 302 302 302 302 302 301 301 301 300 300 301 300 297 296 296 294 295 293 296 296 301 299 301 300 302 301 299 301 301 322 298 295 295 294 299 303 303 306 306 304 303 303 301 302 301 298 298 296 299 298 300 296 295 293 294 307 320 323 323 323 324 324 324 324 324 324 324 324 325 326 327
304 304 307 313 316 306 296 291 292 294 298 304 303 301 303 303 302 301 300 300 301 301 300 302 301 302 302 302 301 300 298 297 297 296 297 295 297 300 300 300 304 301 303 301 299 306 298 296 292 290 290 293 292 297 300 304 306 302 302 305 307 307 307 303 304 301 299 299 297 294 289 292 305 324 323 324 324 323 323 325 326 323 324 324 324 325 326 327
305 308 307 309 313 308 299 295 295 294 299 299 299 298 300 301 303 303 302 301 306 302 301 299 302 302 301 301 300 301 300 300 298 297 298 297 297 301 300 302 305 303 304 308 328 307 299 297 295 289 286 287 289 287 290 297 302 303 304 306 307 307 306 304 300 298 291 299 298 293 291 298 313 322 322 322 322 322 324 324 326 326 325 324 324 324 324 326
303 299 303 304 306 305 305 303 302 300 299 299 297 298 300 298 302 304 303 302 304 303 302 303 303 303 300 300 299 299 300 301 299 298 297 297 296 301 299 300 303 304 316 337 321 307 298 300 295 292 290 290 290 292 298 307 301 302 305 304 306 305 304 303 299 295 295 297 301 298 298 309 314 318 319 320 321 321 321 323 324 324 324 324 323 323 324 324
303 299 299 299 301 303 301 301 302 300 297 300 297 300 300 300 302 303 304 302 304 303 304 302 301 300 299 300 298 297 298 300 300 300 297 297 296 299 302 299 301 326 340 327 316 301 295 297 298 295 297 294 294 298 304 308 302 303 304 305 304 304 304 299 297 299 300 303 294 298 304 307 311 318 320 320 321 321 322 324 324 324 324 323 323 325 329 325
300 305 307 305 299 292 300 301 301 301 301 302 299 301 299 300 300 302 304 304 304 305 302 302 302 300 299 299 300 298 298 299 299 299 301 298 301 300 302 304 305 327 322 308 312 301 294 293 297 303 303 304 302 304 307 306 304 304 303 303 304 304 304 303 304 303 301 293 293 298 308 305 308 317 321 321 322 320 321 324 325 324 325 325 325 325 324 325
307 309 312 318 310 307 301 309 303 302 302 302 300 305 298 300 300 303 305 303 303 304 303 300 301 304 302 300 301 298 299 297 296 301 300 302 301 301 301 304 303 300 304 302 303 302 299 297 305 304 304 305 305 305 307 307 306 308 308 308 308 308 306 308 310 310 308 302 302 306 309 307 308 317 321 322 322 320 321 324 324 324 324 325 324 323 324 325
310 310 311 313 313 312 312 312 313 310 308 314 307 308 303 305 306 309 311 303 301 305 306 302 303 305 303 301 300 299 298 300 302 300 303 302 301 300 299 300 301 302 300 301 302 302 301 302 311 302 300 302 306 308 308 308 308 307 308 309 309 310 311 311 311 312 312 310 310 309 308 307 312 314 318 318 320 321 322 323 323 323 324 325 323 323 324 324
312 315 315 310 307 306 313 311 312 308 306 305 305 307 312 310 308 312 313 312 310 306 306 306 306 304 305 303 301 300 304 303 302 303 304 301 300 300 301 302 300 302 302 301 300 302 303 301 300 300 299 299 304 305 307 308 308 306 305 306 306 306 306 308 306 310 306 307 307 307 306 305 311 317 319 319 319 320 320 321 321 321 325 325 324 324 323 324
314 315 318 310 304 314 309 311 310 307 304 304 311 314 315 313 315 315 309 309 312 312 309 308 307 308 305 304 304 305 307 304 303 304 304 304 303 302 301 301 300 301 298 298 300 299 298 301 300 300 299 297 303 304 303 303 304 302 302 305 307 308 309 311 312 314 313 313 308 302 302 307 315 320 317 316 318 319 319 320 321 321 323 325 324 324 323 324
Wind_Speed
14 14 14 14 14 14 14 14 14 14 14 14 14 14 14 15 15 17 17 17 19 19 19 20 20 21 20 21 19 17 17 4 2 0 3 9 7 8 10 16 19 17 15 12 11 12 4 4 5 3 4 3 2 1 2 1 0 1 1 1 2 2 3 3 2 6 1 3 2 3 1 6 2 0 1 1 7 4 4 5 1 5 4 3 3 6 8 7
14 14 14 14 14 14 14 14 14 14 14 14 14 14 14 14 15 17 16 17 18 18 19 19 20 20 20 20 20 17 14 2 4 2 12 3 12 10 15 21 19 18 15 12 14 8 12 4 5 6 6 2 1 1 7 2 3 2 1 3 2 2 1 5 3 4 2 1 3 3 2 4 1 3 0 3 2 2 5 3 2 6 5 6 6 7 8 7
14 15 15 15 15 14 14 14 14 14 14 14 14 15 15 14 15 16 17 17 18 18 18 19 19 20 20 20 20 18 8 4 1 2 5 14 14 14 18 19 20 21 16 10 9 13 13 15 10 8 3 2 2 2 4 1 5 3 2 1 3 5 1 2 4 4 0 7 5 5 1 4 0 1 0 2 1 3 5 5 3 5 6 5 5 6 7 6
15 15 15 15 15 15 15 15 15 15 14 14 14 15 14 15 15 16 18 17 17 18 19 18 19 19 20 20 18 14 0 1 0 2 0 9 15 17 19 20 21 14 6 7 9 6 5 9 9 7 2 0 1 2 3 3 3 2 2 2 2 2 2 1 1 3 4 7 5 4 2 3 1 1 2 3 5 3 1 2 3 8 8 6 5 6 5 5
15 15 15 16 16 16 16 15 15 15 15 15 15 15 15 16 16 17 17 17 18 17 18 18 18 19 20 20 21 4 4 4 2 2 1 11 14 17 20 20 20 7 7 8 7 4 8 10 9 2 2 2 1 2 5 6 5 4 5 3 2 1 3 1 0 3 5 6 7 5 5 1 1 4 4 4 3 2 1 1 0 6 6 8 7 4 3 5
16 16 16 16 16 16 16 16 15 15 15 15 15 15 16 15 16 17 16 17 17 17 17 17 19 18 18 20 8 0 1 2 0 2 8 11 14 15 17 20 19 8 10 9 5 6 11 5 10 3 1 2 4 7 3 8 5 2 2 1 3 1 5 1 1 2 7 4 6 3 3 2 3 3 2 6 4 3 4 2 3 2 3 3 3 3 1 4
17 16 16 16 17 16 17 16 16 15 15 15 15 16 16 16 16 16 17 16 16 16 16 17 17 18 18 12 1 2 2 7 2 5 8 12 13 12 12 15 11 6 6 5 3 4 4 9 6 4 3 1 4 7 4 5 4 1 0 1 4 4 6 2 2 1 3 8 4 3 5 7 2 5 1 4 3 5 6 5 5 3 3 3 3 1 3 5
17 17 17 17 17 17 17 17 17 16 15 15 16 15 16 17 16 16 16 16 15 15 16 16 16 15 16 5 3 2 2 7 4 5 3 11 12 13 12 7 10 7 7 9 9 4 7 10 8 4 4 4 3 6 2 5 1 3 1 1 1 6 2 5 4 5 6 5 5 7 7 3 5 3 2 3 4 4 5 6 5 3 3 2 2 2 4 6
17 17 17 17 17 17 18 17 17 16 15 15 14 15 17 16 16 16 16 15 15 15 15 15 16 14 6 1 1 3 6 4 3 1 1 9 10 12 13 6 5 11 5 4 8 6 7 7 3 4 3 0 2 5 4 7 3 2 2 1 3 4 3 5 6 4 5 2 6 9 5 2 3 4 5 1 4 3 4 6 4 2 3 2 2 1 3 5
17 17 17 17 17 18 18 18 17 16 16 14 12 13 17 16 16 16 16 15 15 15 15 14 13 13 2 1 2 0 7 6 2 3 4 7 8 10 2 6 9 6 4 5 4 3 2 3 2 3 2 0 1 2 2 5 3 4 7 5 7 3 5 1 6 1 2 2 1 7 3 1 3 3 1 1 4 4 6 4 3 3 1 0 1 1 1 2
17 17 17 17 17 18 18 18 17 16 16 13 12 14 15 17 16 16 16 16 15 14 13 12 10 10 1 1 0 5 6 2 0 3 7 5 7 6 6 8 8 6 3 1 4 8 4 4 4 0 1 1 0 2 2 2 6 9 10 8 9 7 6 3 5 3 1 2 2 10 4 0 4 4 1 2 3 5 6 3 2 2 2 2 2 3 2 5
17 17 18 18 18 18 19 18 17 17 17 14 15 16 17 17 17 16 16 15 15 13 10 9 8 1 0 1 3 9 2 2 3 4 2 6 3 7 7 9 9 5 6 3 5 8 6 4 2 1 1 0 2 1 1 1 7 7 7 5 3 6 4 1 4 2 2 0 2 0 9 7 5 1 2 3 3 6 6 3 2 1 2 3 2 3 3 4
17 17 18 17 18 19 18 18 17 17 17 14 17 18 17 17 18 17 16 14 10 10 9 8 5 1 0 3 10 11 7 7 7 8 6 4 3 4 5 5 8 8 7 5 5 7 5 3 3 1 2 2 1 1 2 6 4 7 5 4 4 3 1 4 1 1 2 1 2 4 2 3 2 1 1 2 4 6 6 3 2 1 2 2 3 2 3 3
18 18 18 17 16 19 18 17 18 17 18 16 15 17 19 18 18 16 14 13 12 10 7 5 0 1 0 5 7 5 5 4 6 6 6 0 1 4 1 6 9 8 6 6 7 2 3 4 4 0 0 1 2 1 7 3 5 5 0 5 2 3 2 4 2 2 2 1 2 3 5 1 2 1 1 1 3 4 3 2 2 2 1 2 2 2 2 2
18 18 17 15 17 19 18 18 18 18 19 16 15 19 19 19 17 15 13 10 8 5 3 2 1 0 0 8 7 10 11 1 5 9 3 1 0 5 3 5 1 4 6 6 2 1 4 6 3 2 0 2 7 5 3 3 2 1 5 2 1 3 2 2 1 5 4 1 3 4 5 3 2 2 1 2 4 3 3 1 1 1 1 1 1 1 0 1
18 18 16 15 17 19 18 17 16 16 16 16 16 20 19 17 15 13 11 8 9 8 1 1 0 1 1 6 1 4 2 1 3 3 3 2 4 5 4 3 4 2 3 1 2 1 2 4 3 2 2 3 9 6 5 4 1 2 2 1 3 1 2 0 4 5 5 3 2 3 2 1 0 2 4 3 4 3 2 1 1 1 1 1 0 0 0 1
18 17 14 14 15 19 18 16 14 15 16 16 20 19 17 13 11 8 8 6 2 2 2 1 0 0 0 3 3 3 2 2 4 2 4 2 3 3 3 4 2 7 6 3 4 3 3 2 1 3 5 6 3 7 6 2 3 4 1 2 4 5 2 3 3 2 3 6 2 1 2 2 1 1 7 5 5 2 2 0 1 1 1 0 0 1 1 1
17 15 14 13 14 18 18 17 15 15 17 18 20 17 14 12 8 6 1 5 1 1 2 1 1 1 9 3 2 0 0 6 5 5 4 2 4 1 0 1 1 5 4 4 4 3 2 1 3 5 2 2 2 2 2 5 6 7 5 2 4 2 5 3 5 4 7 1 6 2 3 1 2 2 5 5 5 3 1 2 3 2 2 1 1 1 2 1
18 17 15 13 13 18 17 17 16 17 18 21 17 12 3 5 3 1 2 0 1 0 0 1 2 2 2 1 5 6 3 5 4 1 4 1 1 1 1 1 2 1 2 3 2 3 3 2 5 6 2 2 4 6 8 10 5 9 9 7 4 6 6 3 3 2 10 4 6 3 2 2 0 2 4 3 4 3 2 3 3 2 2 2 1 1 0 1
18 18 15 13 13 17 17 16 15 16 17 14 7 3 0 2 2 0 1 1 3 5 1 2 2 3 7 6 3 5 5 3 0 1 1 2 0 1 0 1 1 4 2 0 5 2 1 6 1 3 6 5 5 9 9 10 6 6 2 4 9 10 1 4 2 1 8 7 2 1 1 1 0 2 0 3 3 2 0 3 3 3 3 3 3 1 0 1
19 17 14 13 12 15 16 13 12 12 15 7 7 1 2 1 1 2 5 8 6 6 5 5 10 7 6 1 3 4 5 3 1 1 1 1 4 1 3 2 3 1 1 1 1 2 2 3 4 7 5 4 4 5 6 7 3 5 3 6 7 2 2 2 2 3 1 5 1 1 4 3 1 1 0 2 3 4 4 3 3 3 3 3 4 3 2 1
18 17 14 13 12 13 15 13 11 13 12 3 2 3 2 1 1 1 1 5 5 7 8 8 1 5 3 5 2 2 3 2 6 6 4 2 1 3 3 2 2 4 2 0 2 4 3 1 7 7 3 2 0 4 6 2 3 3 6 4 3 1 3 2 3 2 1 7 1 1 5 2 2 2 2 2 3 1 2 5 3 5 3 3 3 4 2 0
18 17 15 13 11 12 12 12 10 10 4 1 2 1 2 0 3 3 2 1 6 3 3 2 3 5 6 3 3 6 1 3 4 4 2 3 1 4 2 1 1 0 0 2 2 1 4 4 9 4 1 4 2 3 2 4 6 7 5 6 7 7 6 1 2 1 3 3 6 4 7 0 4 2 3 3 2 0 2 2 3 0 4 4 5 5 5 1
17 16 15 13 13 13 13 11 12 3 0 1 0 2 1 2 2 1 4 2 3 6 4 5 4 3 6 0 4 6 5 2 3 3 3 5 5 1 2 4 1 0 3 1 3 5 7 8 1 2 3 2 2 5 3 3 3 1 4 2 4 8 6 6 6 3 3 6 6 8 5 1 2 1 1 3 2 4 4 5 4 3 3 2 3 4 3 5
16 15 13 13 13 14 12 13 2 1 1 0 3 5 4 5 2 3 2 3 1 4 2 1 3 3 3 1 4 4 2 0 6 3 1 5 3 3 4 1 2 3 2 3 4 0 8 10 1 1 3 3 3 6 4 2 5 3 5 9 8 8 9 7 9 9 5 2 4 8 3 3 3 2 2 2 2 4 2 4 2 3 4 3 4 3 2 2
15 13 12 11 12 12 12 3 1 1 2 1 1 1 3 4 4 2 3 3 3 4 3 3 1 1 3 1 2 2 3 1 5 5 3 5 4 4 1 0 1 3 3 3 4 3 5 1 2 1 3 2 3 1 3 2 2 5 5 5 6 11 12 15 10 7 3 6 8 1 4 3 3 1 1 1 3 3 2 3 2 2 3 2 2 2 2 3
14 12 11 10 9 12 2 0 1 1 1 0 2 6 4 5 3 1 0 3 2 3 4 2 1 1 0 1 4 2 0 3 3 1 1 2 5 0 4 4 1 1 3 2 3 4 0 1 3 3 2 3 3 4 2 3 4 1 2 7 9 12 16 16 16 6 2 2 4 5 2 3 1 2 0 3 4 2 2 1 1 1 1 1 1 1 1 5
13 12 10 9 7 6 1 3 3 0 2 2 7 6 6 4 1 1 2 1 1 1 1 1 2 1 0 0 6 5 3 1 1 2 0 1 1 2 1 3 5 5 1 2 5 4 1 1 0 1 2 2 1 4 2 2 1 3 1 5 9 9 10 10 7 6 2 9 1 4 2 2 2 2 1 4 4 1 2 2 1 1 1 0 0 1 3 5
13 11 10 7 7 5 3 2 1 2 1 7 8 7 5 4 2 3 3 1 1 1 1 2 4 0 1 1 4 1 1 0 0 1 2 1 3 3 2 5 4 5 1 4 8 3 2 2 2 2 1 4 4 4 3 7 1 1 8 7 9 9 8 7 5 7 2 6 3 4 1 1 4 2 1 2 2 4 4 4 3 2 2 1 1 2 3 4
13 10 9 8 6 1 1 0 6 5 6 7 7 7 3 1 2 1 2 1 1 0 0 1 1 2 1 4 1 0 2 2 1 2 3 3 2 2 1 3 3 1 1 2 1 7 3 5 2 1 3 5 3 3 4 5 2 6 9 11 8 9 5 3 6 3 4 1 2 5 2 2 2 2 5 5 4 3 3 2 2 2 2 1 1 1 2 3
12 11 8 8 2 1 1 2 5 2 7 7 8 3 2 8 3 3 1 2 0 1 0 0 2 1 4 4 2 1 1 1 1 1 1 2 2 2 1 1 5 4 2 4 4 4 4 1 1 2 0 2 1 2 1 1 4 8 3 5 8 5 6 6 4 5 2 2 3 2 3 2 2 2 1 3 1 1 3 6 8 8 7 4 2 1 0 2
10 10 7 4 4 3 3 1 2 6 7 8 3 5 3 1 4 2 2 4 1 2 1 1 0 0 4 1 2 3 5 0 1 1 4 3 3 4 3 5 3 1 4 1 6 4 4 4 1 6 4 6 1 2 6 3 3 4 5 5 3 1 3 0 4 1 0 2 0 1 1 1 4 2 2 4 3 2 5 6 9 10 8 5 3 3 1 1
9 8 10 8 6 4 7 4 4 6 10 2 3 4 2 3 2 3 2 3 0 1 1 2 1 1 1 1 2 1 1 5 2 1 3 0 4 4 1 3 5 5 2 3 1 3 8 4 2 4 3 3 4 2 5 5 2 3 1 2 3 2 1 1 1 1 3 5 3 1 0 2 2 3 1 3 3 4 6 8 8 9 10 7 5 4 3 1
9 7 4 4 7 9 6 3 4 9 9 3 2 5 6 2 2 6 2 2 1 2 2 2 4 1 3 6 2 3 2 2 3 2 2 1 2 2 3 1 4 1 1 1 3 4 1 7 7 3 4 1 4 7 10 7 3 5 3 5 5 6 4 2 3 3 6 5 2 2 2 3 4 1 1 1 1 3 4 4 6 7 6 6 5 4 3 1
8 5 5 5 6 9 14 9 5 5 3 3 7 4 4 4 2 1 1 3 2 2 3 2 2 2 0 0 1 1 3 2 2 2 0 4 3 3 5 5 3 4 1 5 2 2 3 5 8 4 0 4 4 3 4 3 1 0 3 5 4 5 5 3 4 4 2 2 0 1 2 1 1 2 2 1 1 3 5 6 8 8 6 6 5 4 3 2
4 0 2 3 3 3 4 5 3 3 1 6 3 1 3 4 1 1 1 2 1 3 9 7 2 1 0 1 2 1 3 0 1 2 1 3 3 4 3 3 5 8 6 6 3 2 2 3 2 7 2 4 6 4 3 5 1 2 1 1 3 2 11 5 2 2 2 4 1 0 4 3 4 0 2 1 2 2 4 6 7 7 6 5 4 4 4 4
2 1 2 2 4 1 4 6 6 3 6 6 3 1 4 3 5 1 2 3 4 4 2 4 2 2 1 2 1 0 1 1 1 2 3 0 2 4 1 4 4 5 7 8 2 3 4 7 4 2 7 3 2 7 3 2 4 6 1 4 3 2 6 7 3 3 5 2 2 2 1 5 2 3 1 1 3 2 3 5 6 6 5 5 4 4 4 5
2 1 2 2 1 4 4 6 4 4 5 3 1 4 2 0 1 1 2 4 2 1 1 0 4 2 2 1 1 1 0 3 2 1 3 2 2 3 5 2 5 10 10 3 4 2 3 4 6 4 6 5 3 4 3 1 2 5 3 6 4 1 1 3 6 1 1 1 2 4 1 4 5 4 2 4 5 5 3 4 6 7 5 5 4 4 4 2
1 0 1 3 1 5 3 5 2 3 5 3 1 1 2 3 3 2 3 2 3 0 0 2 1 1 1 0 2 1 3 4 1 3 3 2 1 3 6 5 3 6 6 7 2 1 0 2 6 2 2 3 3 3 3 2 3 4 6 3 1 4 3 4 1 3 6 1 2 3 2 3 5 4 9 7 8 8 6 5 6 6 7 6 5 5 4 4
2 1 3 2 3 2 3 0 2 6 4 2 2 3 1 2 3 4 4 1 3 0 2 1 1 2 2 5 3 4 2 2 3 3 2 2 4 2 2 2 3 1 5 8 4 2 1 1 1 3 4 2 1 1 2 7 7 2 3 1 2 3 2 6 2 2 3 7 4 2 1 6 6 4 6 6 7 9 10 8 6 5 5 6 6 4 4 3
0 3 1 1 2 3 0 3 6 2 1 1 1 2 2 1 3 3 6 6 3 3 6 3 1 2 2 2 4 2 1 4 4 2 3 2 6 2 6 6 5 3 3 3 1 2 2 1 5 4 7 3 6 3 3 4 7 9 10 7 10 9 4 3 1 1 2 5 4 4 4 7 5 1 1 3 3 6 5 7 7 6 6 5 3 3 3 4
1 2 1 1 3 1 2 3 1 0 2 1 2 2 2 3 2 5 2 2 6 3 1 2 3 4 2 5 4 2 3 2 4 3 3 6 3 5 3 4 6 10 8 7 7 3 4 3 1 4 3 6 5 5 2 6 3 4 5 4 3 3 7 6 3 4 3 1 3 2 1 1 2 2 2 3 3 4 5 8 7 6 6 4 2 3 3 4
4 2 2 4 3 1 3 3 1 0 1 3 2 3 3 2 3 3 1 2 2 3 1 2 4 1 4 3 1 1 4 2 6 6 4 4 5 11 6 10 8 6 5 1 2 2 4 1 0 3 7 7 4 3 2 2 3 7 5 4 2 5 4 6 5 7 7 2 1 1 0 2 1 3 4 6 7 7 5 6 7 5 5 3 4 5 6 7
2 2 2 1 1 4 3 1 0 1 3 3 1 6 4 3 1 3 3 2 2 1 1 1 4 4 3 1 1 2 3 0 4 4 3 4 3 7 11 11 13 5 6 7 6 4 4 2 5 0 2 2 5 4 4 5 6 4 2 2 1 6 7 4 7 3 6 4 4 6 2 1 2 2 4 6 6 7 6 5 6 6 5 5 5 5 5 7
3 0 2 1 1 3 1 4 2 1 1 3 3 6 5 1 6 9 4 3 1 2 0 3 5 1 3 0 2 1 3 4 1 4 2 1 5 1 9 13 14 9 8 6 5 7 2 4 5 3 3 2 1 1 2 0 1 1 2 2 3 6 10 5 3 1 3 2 3 2 3 3 2 2 5 6 6 7 5 5 6 5 7 7 5 5 6 6
1 2 2 2 1 1 0 0 1 1 2 2 3 5 1 3 3 3 6 5 4 3 3 4 3 2 3 1 2 1 1 1 4 1 3 2 2 1 5 9 13 9 10 9 6 7 2 1 3 7 8 8 7 3 4 4 2 3 1 4 4 3 5 7 5 4 4 4 4 5 2 2 3 5 4 5 5 7 7 8 8 7 5 4 5 5 5 6
0 3 2 0 2 0 2 1 0 1 2 1 1 1 2 2 3 4 5 1 1 3 2 3 2 2 2 1 2 2 2 0 3 1 5 4 2 2 2 8 3 5 7 7 8 6 3 2 2 3 1 3 5 2 3 2 5 2 4 1 3 4 4 5 3 2 4 10 2 3 4 5 6 8 7 6 5 6 7 8 9 7 6 6 6 5 6 5
1 1 1 2 3 1 1 3 5 5 3 0 4 0 3 2 2 2 3 2 4 1 0 2 0 1 4 4 1 1 2 3 1 2 2 2 0 2 4 3 5 2 8 2 2 2 3 2 1 2 4 6 1 2 4 6 4 3 4 4 3 4 3 2 1 3 1 3 3 3 6 3 2 7 8 8 8 7 7 7 7 7 6 6 5 6 6 6
1 0 1 0 0 2 3 1 4 4 3 5 2 2 3 3 4 2 1 3 3 2 1 2 4 5 5 6 1 1 0 4 4 1 1 0 0 2 1 4 3 3 5 3 1 2 6 3 2 3 6 10 9 6 4 11 4 7 6 5 4 8 5 7 5 2 2 1 1 4 5 2 2 3 9 6 4 5 6 6 6 7 7 7 6 6 6 5
1 0 1 3 2 1 1 0 0 2 1 4 3 5 2 2 4 4 1 1 2 3 1 1 8 7 6 5 2 1 4 4 4 4 1 1 0 2 1 3 4 2 3 4 2 0 4 0 2 1 5 6 8 8 10 8 9 7 6 5 5 6 7 4 4 2 5 6 6 4 3 1 1 2 3 4 6 6 6 7 7 6 6 7 6 6 5 5
1 0 0 1 1 1 0 1 0 0 0 1 2 4 1 2 3 1 5 4 7 3 2 4 5 6 3 1 2 7 9 6 6 10 8 4 3 4 3 2 4 6 2 2 1 1 6 2 2 2 6 3 4 6 8 10 11 8 4 5 6 4 4 0 1 1 1 4 2 4 2 3 1 3 6 7 7 8 8 7 7 6 6 7 7 6 5 5
1 1 0 1 0 1 0 0 0 1 2 4 3 2 1 6 4 4 5 4 6 8 5 4 3 1 7 4 8 9 9 4 6 8 8 7 1 3 3 2 5 7 4 2 1 4 3 7 3 3 9 0 1 3 4 7 8 6 1 2 2 1 0 1 1 2 1 5 7 3 2 3 6 6 8 3 6 5 6 6 5 4 5 7 7 6 5 6
Wind_Direction
340 339 340 341 340 341 341 339 339 338 336 334 335 334 330 328 327 324 324 324 322 321 322 323 320 319 319 322 328 336 337 346 353 77 332 239 180 169 155 120 142 137 131 113 113 116 110 97 112 130 92 115 257 121 192 196 242 60 63 115 2 222 97 197 170 182 148 111 155 83 112 104 93 35 154 101 49 70 67 69 29 58 56 92 101 104 100 107
339 338 338 338 339 340 339 339 337 336 335 333 333 332 329 327 326 325 324 323 323 322 322 321 319 318 318 321 328 338 337 317 316 286 233 146 140 139 132 138 139 141 120 119 146 148 131 159 144 142 122 161 248 255 133 235 164 135 130 94 256 209 280 158 181 163 122 180 130 108 75 102 154 134 269 76 345 9 69 32 85 88 90 90 87 92 107 112
338 337 336 337 338 338 339 337 336 334 334 333 332 331 329 327 325 324 324 323 322 323 322 320 318 318 319 322 327 336 350 325 280 263 279 153 149 139 140 143 145 151 146 152 173 153 159 178 155 140 155 95 197 175 180 276 166 216 102 331 254 214 254 204 156 168 146 136 112 91 17 73 166 66 97 97 102 39 101 129 55 99 116 109 100 96 101 112
337 336 336 335 335 337 337 337 336 333 332 332 331 329 328 327 324 324 323 322 323 322 322 320 317 319 319 324 328 329 356 338 250 249 121 158 149 146 147 149 152 152 77 128 155 135 70 118 138 138 109 199 280 181 187 204 158 213 109 184 236 205 94 338 116 135 127 115 117 93 107 69 12 60 87 149 59 6 332 280 176 160 145 129 118 114 107 122
336 335 334 334 335 335 336 336 335 333 331 331 329 328 326 325 324 323 323 322 322 322 321 319 319 319 321 325 326 340 358 54 272 247 161 156 153 153 151 154 155 134 121 121 106 71 109 133 142 125 94 195 230 154 243 178 207 122 198 201 177 236 60 340 138 121 101 109 95 104 86 124 224 42 53 63 105 354 247 274 149 139 140 134 134 138 116 144
333 334 334 334 334 334 334 335 334 331 332 329 328 325 324 323 322 323 321 321 321 321 320 319 320 322 324 325 325 30 31 133 327 330 94 140 147 151 153 156 159 118 108 120 132 126 103 101 130 157 225 155 210 183 246 180 168 203 301 98 111 227 126 243 119 149 117 102 107 91 134 90 56 78 47 64 45 317 324 77 85 83 103 108 96 104 119 151
332 332 333 333 333 333 333 332 331 330 329 329 324 323 322 323 322 320 319 320 317 319 320 318 320 323 331 328 184 45 153 266 3 297 101 131 134 133 140 151 135 118 100 103 120 135 142 144 150 189 158 215 263 208 248 161 171 115 194 38 34 91 115 144 99 78 81 114 121 139 96 72 50 64 5 56 12 20 32 55 70 59 74 93 109 136 148 160
330 331 331 332 332 332 331 331 329 328 328 326 324 322 322 322 320 318 318 316 316 315 318 320 320 326 345 2 4 344 21 256 233 311 114 112 121 128 123 122 137 131 139 176 168 176 135 149 195 162 187 163 204 190 162 100 96 144 52 39 86 66 60 90 89 77 79 70 114 80 72 81 76 119 72 12 32 33 45 53 55 62 85 86 110 123 143 149
329 329 330 331 331 332 330 329 328 327 327 324 321 321 322 319 318 317 314 311 311 313 315 319 323 325 331 39 110 346 268 238 176 202 165 110 121 123 129 131 168 145 176 181 193 160 156 206 240 176 275 203 156 160 215 118 308 132 140 77 68 77 96 113 76 58 88 86 99 76 78 102 72 120 60 128 81 79 65 56 49 59 94 124 168 189 153 156
328 328 328 329 330 330 329 327 325 327 325 321 319 320 318 317 314 313 310 308 310 313 314 318 328 324 355 58 36 178 262 228 105 122 117 116 128 135 161 134 160 148 126 219 168 143 197 211 195 254 184 121 140 171 220 146 220 115 82 87 91 108 107 69 125 85 355 89 352 105 97 129 309 89 21 24 128 101 68 62 34 55 58 1 321 311 2 101
327 327 327 329 329 329 327 325 324 324 324 319 320 319 315 311 310 307 307 307 309 310 311 317 333 348 53 38 131 227 252 59 194 148 128 136 113 148 174 152 164 146 175 178 184 179 218 162 219 165 71 270 83 350 84 264 118 94 120 82 59 74 55 74 75 95 68 70 33 122 143 287 345 59 159 172 148 113 97 51 36 26 3 355 352 352 355 75
325 326 327 328 329 327 326 324 322 323 321 320 316 314 310 307 304 304 303 305 305 304 310 319 335 23 79 92 196 224 262 264 336 303 151 146 187 205 166 160 169 165 155 226 218 204 175 180 146 72 251 149 3 119 66 113 79 136 113 86 70 66 69 338 136 178 68 117 175 152 78 36 9 92 274 184 133 108 98 88 43 17 351 354 359 358 7 359
325 325 327 327 327 327 325 323 322 321 320 317 315 309 308 305 303 301 301 303 297 304 309 319 322 259 81 332 230 238 284 297 314 318 306 176 211 207 183 170 172 184 193 188 257 172 164 151 121 55 242 107 139 38 150 73 106 95 43 108 70 50 28 232 325 78 57 288 93 358 50 294 322 16 221 198 112 94 89 89 86 4 354 358 4 7 346 3
324 324 325 325 325 325 324 322 321 319 317 315 308 307 307 304 299 297 294 289 294 301 304 315 41 13 91 245 274 249 253 273 298 313 284 12 6 282 173 175 185 192 197 210 252 206 189 186 129 249 59 97 129 69 63 12 15 102 315 56 105 107 246 237 185 181 123 10 94 13 123 221 272 20 167 139 101 105 98 104 100 80 31 359 5 6 350 327
323 323 323 321 324 325 323 321 320 318 316 311 306 308 306 301 296 291 288 288 285 276 310 7 38 71 46 263 265 281 265 271 313 272 220 176 295 328 318 356 61 154 198 198 205 186 145 123 97 50 259 338 91 62 48 38 6 43 77 279 3 175 274 271 140 153 146 349 37 44 73 189 227 170 136 127 78 76 91 84 70 95 93 88 350 356 318 268
322 323 320 320 324 324 322 321 319 316 313 312 310 308 302 294 289 287 282 270 265 254 230 332 343 99 85 306 251 307 353 326 279 286 293 178 161 224 250 335 292 14 37 267 230 178 98 105 85 173 106 35 58 94 67 56 333 21 97 252 212 112 255 25 239 170 147 112 33 46 164 127 74 218 135 138 99 72 79 46 13 14 95 117 100 252 230 352
321 320 319 321 322 324 321 320 318 316 318 316 314 303 295 288 281 279 286 263 244 125 161 118 352 166 199 237 299 348 281 274 277 329 353 204 175 212 338 3 356 350 346 348 34 118 26 80 281 28 28 102 124 93 75 8 327 276 70 196 201 177 187 217 308 184 147 131 186 26 106 250 246 221 127 117 120 96 76 99 266 244 226 117 103 20 356 344
319 318 319 321 323 323 320 319 319 321 321 319 315 301 297 287 265 265 41 60 108 140 259 221 172 354 283 338 300 246 315 288 331 306 286 278 174 339 153 350 341 7 31 7 349 44 329 76 41 138 27 18 95 55 95 250 199 212 210 229 288 199 179 211 159 227 114 115 109 62 62 221 305 216 116 131 129 131 144 198 214 221 196 174 92 54 359 332
318 319 321 321 320 320 320 321 322 323 325 321 308 301 330 103 103 174 100 166 74 1 4 252 131 156 199 255 284 313 265 233 285 12 302 81 52 130 46 88 55 359 3 48 278 38 352 54 38 58 356 124 200 164 182 227 217 234 187 197 167 184 214 216 249 327 136 100 84 154 180 198 309 222 125 106 139 146 206 186 202 226 186 134 97 60 10 8
317 317 319 318 320 317 321 321 321 324 332 334 356 0 36 18 6 19 344 55 213 202 154 194 216 303 311 279 292 277 270 32 135 262 293 289 104 23 327 67 2 54 83 230 306 58 75 79 78 239 230 247 185 200 210 244 208 242 126 145 204 205 69 66 61 38 118 85 10 216 122 102 312 275 194 138 125 128 223 193 194 206 176 145 130 154 140 22
315 316 315 319 315 319 317 322 316 326 332 322 320 22 94 198 65 296 312 255 230 242 245 232 197 221 235 315 296 16 15 316 64 283 166 20 108 82 288 31 33 335 317 194 184 306 50 17 273 226 228 230 240 197 239 273 192 193 137 174 229 168 64 291 148 150 96 110 317 174 93 16 292 303 322 117 124 199 202 221 243 201 184 154 151 159 135 277
316 314 315 313 312 316 318 315 324 326 324 296 319 85 164 120 128 149 102 329 315 237 224 246 328 282 311 271 240 151 100 7 312 280 293 162 352 149 284 96 133 211 314 341 16 19 36 231 248 238 224 228 157 223 239 231 91 85 157 164 125 189 170 14 66 63 337 89 233 216 110 327 323 343 0 85 190 242 219 198 215 176 153 147 155 149 124 17
319 316 312 315 318 317 316 319 315 331 326 24 33 90 78 92 347 309 147 215 272 249 196 202 218 249 283 250 232 120 109 214 224 293 237 101 44 194 156 101 122 146 40 68 218 358 323 289 247 226 73 13 4 278 1 44 87 105 91 123 202 186 145 244 291 32 9 128 169 175 104 309 329 314 29 31 101 194 13 79 56 32 148 168 169 158 149 178
321 316 313 315 318 318 316 321 309 294 335 168 167 196 122 338 337 31 128 227 291 307 207 217 168 192 223 161 205 130 152 252 117 276 277 129 155 189 110 160 127 58 244 173 152 172 212 237 215 44 56 103 312 315 54 62 36 72 148 146 127 171 214 146 190 114 91 33 112 106 56 340 350 4 10 3 357 64 23 66 68 66 88 117 108 102 132 178
324 319 314 316 320 316 320 326 351 29 165 82 246 256 273 287 283 211 137 338 5 288 256 307 192 233 220 10 113 156 239 328 216 228 234 124 126 80 222 179 124 228 197 175 101 276 278 263 224 48 65 54 62 350 3 63 14 316 221 187 190 164 123 102 124 120 36 33 285 137 66 281 281 283 236 292 10 33 7 73 49 80 83 91 105 123 109 105
328 322 321 319 320 324 314 309 304 47 358 235 169 346 321 310 301 201 98 81 313 269 355 223 147 283 135 184 150 163 72 280 224 218 171 206 161 148 65 135 134 233 171 159 185 202 211 300 105 160 115 73 53 308 276 99 54 40 303 179 149 137 128 134 140 100 134 166 213 94 144 256 323 252 157 5 71 53 14 46 20 54 88 92 136 180 150 81
332 328 322 326 324 331 321 151 291 273 46 279 33 334 327 308 297 190 27 358 327 236 158 266 57 238 241 200 151 107 85 268 300 97 164 217 169 1 144 240 20 10 168 165 46 267 105 346 63 51 80 73 45 355 267 120 87 296 261 94 116 122 143 161 160 140 154 92 53 53 104 147 288 288 153 144 90 67 63 31 19 12 69 115 183 267 59 73
335 331 329 322 338 338 327 331 337 153 238 308 333 335 316 301 328 70 78 54 260 284 107 283 224 326 130 283 151 159 198 239 57 240 132 288 114 6 90 216 176 177 170 101 211 256 149 348 122 19 77 76 302 220 219 153 142 246 126 124 139 151 162 150 107 79 113 109 109 317 3 61 261 259 343 119 116 200 225 196 246 279 308 307 312 345 52 82
338 332 328 331 316 352 310 281 46 228 329 326 320 324 325 301 112 97 117 108 256 76 309 127 296 64 340 34 193 242 356 344 135 259 312 34 49 142 213 233 159 158 255 154 211 280 285 206 194 131 157 279 231 246 178 141 58 319 105 70 72 68 60 68 79 90 56 70 217 266 19 144 286 279 76 9 114 221 219 210 218 240 242 282 328 335 32 60
340 335 322 326 314 273 261 269 231 256 325 314 316 315 303 60 37 42 33 247 320 331 21 256 91 220 84 133 259 352 212 307 189 329 33 155 320 35 46 139 130 120 211 354 220 219 255 302 191 181 206 205 196 242 168 184 166 108 82 74 57 51 55 41 70 88 55 46 255 235 251 130 303 258 193 144 219 197 170 160 215 208 212 302 321 306 352 42
333 333 322 334 273 290 164 293 247 317 309 312 309 297 76 39 111 103 154 227 337 291 346 347 217 36 117 140 216 298 114 310 328 72 38 7 17 46 20 258 40 55 36 357 303 322 343 6 135 252 6 152 142 311 26 101 120 138 133 124 86 25 14 37 343 38 103 264 262 255 203 149 197 298 303 243 144 281 194 192 187 188 195 194 185 212 300 48
318 320 307 265 293 338 196 151 323 329 314 303 344 58 69 254 10 141 209 312 55 290 96 268 245 103 211 267 144 171 176 4 253 112 159 185 138 154 172 170 171 47 338 307 266 356 323 256 223 320 255 175 150 356 300 9 21 94 99 59 119 259 39 10 12 354 232 197 238 64 116 73 234 218 222 294 312 281 258 234 197 182 180 175 161 158 151 76
303 296 288 260 262 240 252 289 348 338 311 293 66 53 68 101 200 266 290 321 127 213 295 173 265 188 164 77 254 243 209 175 284 228 120 9 138 226 242 171 197 149 196 251 238 358 281 276 323 265 327 206 143 192 301 350 349 68 176 149 81 103 56 123 276 344 313 281 241 13 50 222 283 294 265 293 302 297 284 260 213 174 163 159 148 148 149 66
300 302 274 221 222 238 268 309 328 342 352 32 71 45 57 82 247 230 242 250 292 332 335 19 322 56 125 176 242 165 182 253 136 210 135 174 96 209 273 281 142 209 111 140 170 187 298 333 296 169 249 283 151 173 185 184 222 256 135 139 190 142 152 185 183 180 209 202 251 283 149 232 132 238 285 210 296 326 345 19 96 109 113 123 128 126 125 114
317 292 252 271 263 247 241 247 278 321 357 67 59 89 150 232 222 227 252 320 311 300 285 285 232 122 311 33 280 240 160 235 149 108 71 121 226 171 184 210 242 111 122 148 257 73 201 213 255 227 63 140 168 231 127 101 4 132 150 86 93 237 132 121 206 141 162 152 79 345 196 145 196 210 163 123 109 56 67 74 97 105 115 125 123 133 148 175
331 265 155 255 250 273 184 190 173 209 68 65 89 156 194 197 327 150 42 225 302 345 312 341 72 98 305 313 298 145 289 146 288 98 320 177 204 185 213 188 180 185 137 167 199 179 8 283 266 310 143 181 215 138 237 134 232 252 91 217 224 173 108 114 80 25 96 59 265 229 336 306 309 348 167 95 84 57 83 96 107 119 125 127 133 148 166 192
9 279 340 223 254 209 141 158 163 130 68 89 94 248 213 278 202 177 309 2 271 285 10 34 297 130 207 230 247 307 262 62 272 129 244 208 289 201 217 254 169 167 189 137 285 188 147 251 288 100 289 285 207 183 193 216 140 93 108 217 174 134 109 124 141 329 55 154 247 47 267 297 17 251 112 126 126 167 113 109 119 126 135 143 151 171 180 196
344 316 255 305 286 120 137 176 140 57 81 83 144 254 173 258 205 255 268 336 353 353 333 138 270 95 289 143 271 208 124 154 270 117 220 197 238 189 148 183 195 178 205 205 162 271 128 304 295 231 240 255 353 76 22 34 13 159 203 168 100 221 217 4 90 110 137 275 283 319 249 252 185 242 198 218 178 189 169 132 136 146 154 159 174 192 198 172
219 33 37 337 85 135 151 183 69 77 62 69 256 327 248 231 259 242 283 300 218 33 193 241 197 280 140 188 221 244 177 185 214 176 113 251 188 223 191 168 219 216 186 136 146 178 36 150 291 305 179 346 26 59 197 218 26 66 104 92 310 97 155 112 186 169 107 201 59 288 46 250 207 213 181 188 185 175 168 163 162 161 164 172 189 193 177 160
32 41 5 4 114 111 166 114 55 48 72 162 217 224 217 284 268 273 264 324 309 316 254 257 233 294 271 223 163 180 239 149 160 232 140 246 205 276 197 267 172 150 166 179 165 157 123 119 244 279 304 31 60 334 256 164 132 61 105 242 23 30 215 112 50 78 157 161 176 156 335 275 267 221 165 169 174 174 176 179 157 164 178 189 196 186 167 155
305 100 341 59 101 128 121 40 54 62 98 257 170 244 338 250 322 278 272 229 223 227 213 226 199 226 223 3 283 200 159 175 171 172 199 249 177 277 222 181 150 113 109 50 58 185 88 130 203 316 360 354 241 227 249 191 183 163 167 188 150 126 116 120 261 50 83 104 193 130 229 265 274 307 209 148 178 164 180 151 150 167 176 191 193 193 167 139
84 69 331 34 137 162 68 54 23 211 102 180 250 186 279 277 292 275 290 275 183 262 243 237 245 228 211 218 204 212 150 185 208 180 239 195 240 194 285 165 150 149 135 176 192 229 146 163 117 290 230 264 277 292 224 227 177 154 129 149 165 99 98 99 139 235 55 47 100 144 128 281 256 339 39 63 85 109 125 135 145 165 171 186 204 156 121 117
54 131 311 123 201 20 65 57 299 50 186 232 303 287 230 263 231 253 316 271 272 200 276 196 219 180 242 202 233 208 166 229 166 200 196 189 227 208 215 156 122 113 78 22 82 209 128 99 64 291 310 293 305 263 259 119 114 71 32 57 92 142 166 167 177 169 131 168 60 7 324 246 295 26 61 71 77 86 91 132 150 154 159 164 135 124 123 114
124 129 24 323 232 34 89 142 41 307 278 307 247 260 214 242 226 299 228 269 192 323 194 272 314 198 275 206 162 233 187 109 239 187 274 206 246 217 161 159 152 169 153 216 141 223 137 273 123 280 6 332 343 348 0 341 53 77 89 0 85 96 70 122 109 62 91 216 166 118 224 282 278 62 87 102 107 112 124 142 159 145 141 136 130 119 117 118
103 31 64 333 343 52 71 187 126 193 277 295 295 301 313 289 214 215 199 243 249 227 5 264 211 38 292 47 263 260 220 192 304 236 187 220 238 296 199 167 181 176 205 190 170 151 125 172 132 152 153 132 160 286 258 273 317 307 73 50 10 104 126 113 71 2 100 215 108 123 244 256 279 120 110 114 118 112 122 141 148 148 140 140 135 125 122 127
159 113 308 11 0 29 36 111 151 162 278 290 333 264 210 280 310 264 182 271 208 241 215 271 304 196 259 12 285 304 265 180 172 249 162 246 272 273 215 206 190 187 193 146 138 120 132 122 117 158 158 185 204 209 250 129 58 86 354 55 58 40 43 90 100 89 193 185 183 231 178 156 183 171 156 135 133 133 135 143 145 139 132 124 130 128 131 131
190 104 164 224 351 1 245 296 268 87 231 180 284 289 299 248 275 313 164 263 202 178 268 179 254 10 296 351 280 296 226 309 291 311 228 214 251 232 256 172 196 345 110 109 137 85 73 67 14 101 49 217 188 215 171 103 121 105 98 62 32 38 42 67 119 198 160 108 274 262 182 138 222 181 184 168 156 149 154 150 145 140 143 148 144 142 129 116
76 254 124 190 127 238 81 303 199 222 258 7 269 306 264 310 328 319 317 250 305 299 203 320 1 212 249 243 242 266 322 306 111 208 325 219 338 346 44 36 150 217 122 80 31 118 127 104 313 97 16 18 70 92 91 77 62 104 85 71 46 4 50 108 37 108 93 117 187 217 164 167 241 185 174 182 180 167 159 150 145 147 134 130 137 137 141 143
129 157 172 300 220 239 160 188 159 180 227 193 264 220 273 265 276 239 193 311 340 305 139 279 286 294 299 300 171 250 331 12 328 304 226 344 153 79 75 50 46 45 110 109 48 123 92 40 42 99 79 34 14 30 43 100 89 47 34 48 73 79 79 96 91 14 96 107 221 161 155 186 232 176 177 179 147 120 129 126 125 137 146 147 147 148 152 145
11 83 239 1 83 173 250 355 171 91 255 213 200 254 206 264 284 311 323 175 293 282 285 199 272 293 291 297 221 228 217 190 221 277 279 189 246 109 182 190 144 20 74 133 141 327 99 152 145 30 66 19 6 34 53 64 88 80 33 48 72 96 74 61 106 144 82 62 57 99 96 331 277 201 123 91 103 108 113 135 150 151 149 153 154 157 151 139
265 315 282 85 0 281 72 25 61 124 240 307 171 278 291 272 252 275 280 208 208 222 204 233 268 304 277 285 219 245 253 218 207 214 218 162 176 226 117 257 147 137 73 81 37 351 71 166 41 78 86 14 350 40 81 80 78 89 58 28 21 35 96 269 90 219 124 143 114 81 56 265 232 98 94 112 124 143 151 152 150 160 165 159 161 162 150 139
351 283 67 105 222 311 177 295 10 78 287 226 178 249 267 271 248 351 314 273 224 228 215 240 279 49 294 331 278 244 253 199 205 226 225 222 13 51 11 301 135 150 161 102 306 90 120 127 104 92 81 326 341 14 63 76 65 41 341 297 289 334 216 102 8 45 152 143 114 132 226 225 158 146 118 130 144 155 156 164 155 161 175 169 168 159 146 134